Location: Radomski Observatory
(40.2854°N, 79.5145°W)
Time: 09:03:58
(UTC-04:00)

Amateur Radio Satellites - All Passes

Search period start: 26 April 2015 08:33
Search period end: 27 April 2015 08:33
Location: Radomski Observatory, 40.2854°N, 79.5145°W

Satellite Date Start Highest point End Downlink Frequencies (MHz)
Time Altitude Azimuth
Cosmos 2491 26 Apr 08:34:02 08:38:00 14° 56° (NE) 08:42:35 435.465 / 435.565
O/OREOS (USA 219) 26 Apr 08:46:43 08:51:14 81° 67° (ENE) 08:55:41 437.305
GOMX 1 26 Apr 08:49:40 08:53:23 20° 91° (E) 08:57:24 467.674
BRITE-PL 26 Apr 09:04:02 09:08:53 41° 97° (E) 09:14:04 437.365/2234.400
PCSat 26 Apr 09:13:59 09:19:23 71° 300° (WNW) 09:24:50 145.827
CUTE-I 26 Apr 09:15:52 09:19:12 16° 297° (WNW) 09:22:19 437.470
DOVE 4 26 Apr 09:23:06 09:27:30 28° 94° (E) 09:32:05 437.250
Cubesat XI-IV 26 Apr 09:26:18 09:28:54 13° 299° (WNW) 09:31:13 437.490
SEEDS 26 Apr 09:27:32 09:30:55 23° 94° (E) 09:34:20 437.485
CANX-2 26 Apr 09:36:28 09:40:30 39° 97° (E) 09:44:30 2200.000
YUBILEINY 26 Apr 09:41:23 09:45:15 14° 78° (ENE) 09:49:48 435.215
AAUSAT CUBESAT 2 26 Apr 09:43:15 09:46:38 24° 94° (E) 09:50:03 437.432
CUTE 1.7 + AOD 2 26 Apr 09:45:27 09:49:34 45° 98° (E) 09:53:40 437.475
TIGRISAT 26 Apr 09:56:34 09:59:12 16° 65° (ENE) 10:02:04 435.000
CUBEBUG 2 26 Apr 09:59:32 10:02:32 17° 90° (E) 10:05:42 437.445
UNISAT 6 26 Apr 10:00:45 10:03:44 18° 66° (ENE) 10:06:56 437.425
HO-68 26 Apr 10:00:57 10:08:07 67° 102° (ESE) 10:15:14 435.675
CINEMA 3 26 Apr 10:03:08 10:07:42 36° 96° (E) 10:12:20 145.822/145.860
UWE-3 26 Apr 10:23:50 10:27:36 24° 93° (E) 10:31:27 435.000/436.395/437.385
POLYITAN 1 26 Apr 10:24:51 10:27:05 15° 66° (ENE) 10:29:30 437.675
DUCHIFAT 1 26 Apr 10:25:16 10:27:21 14° 65° (ENE) 10:29:37 145.980
GOMX 1 26 Apr 10:26:46 10:31:45 50° 287° (WNW) 10:36:57 467.674
Cosmos 2491 26 Apr 10:28:03 10:36:54 72° 80° (E) 10:45:44 435.465 / 435.565
FUNcube-1 26 Apr 10:31:53 10:35:28 23° 93° (E) 10:39:07 145.935
COMPASS 1 26 Apr 10:36:05 10:40:17 69° 284° (WNW) 10:44:25 437.405
UKube-1 26 Apr 10:37:32 10:39:29 13° 90° (E) 10:41:40 .
ANTELSAT 26 Apr 10:41:16 10:45:35 46° 73° (ENE) 10:50:04 437.575/2403.000
QB50P1 26 Apr 10:41:58 10:45:08 22° 68° (ENE) 10:48:25 145.935-145.965
BRITE-PL 26 Apr 10:43:03 10:47:14 25° 291° (WNW) 10:51:32 437.365/2234.400
HUMSAT D 26 Apr 10:48:20 10:50:52 16° 90° (E) 10:53:34 437.325/437.525
DELFI C3 26 Apr 10:49:33 10:53:27 46° 99° (E) 10:57:20 145.870
Oscar 11 26 Apr 10:54:52 10:59:14 73° 102° (ESE) 11:03:32 145.826/435.025
ZACube-1 26 Apr 10:56:58 11:01:21 43° 98° (E) 11:05:43 437.345
DOVE 4 26 Apr 11:00:37 11:05:16 35° 289° (WNW) 11:10:00 437.250
PCSat 26 Apr 11:01:19 11:03:55 13° 322° (NW) 11:06:18 145.827
SEEDS 26 Apr 11:03:03 11:06:43 28° 290° (WNW) 11:10:19 437.485
VELOX 1 26 Apr 11:04:55 11:06:57 13° 90° (E) 11:09:12 145.980
QB50P2 26 Apr 11:07:23 11:11:21 41° 72° (ENE) 11:15:22 145.880/145.840
CANX-2 26 Apr 11:13:13 11:16:10 18° 293° (WNW) 11:18:58 2200.000
AAUSAT CUBESAT 2 26 Apr 11:18:41 11:22:15 27° 290° (WNW) 11:25:43 437.432
SO-50 26 Apr 11:20:32 11:24:23 27° 113° (ESE) 11:28:24 436.795
AISAT 26 Apr 11:21:58 11:25:21 22° 93° (E) 11:28:51 437.250
CUTE 1.7 + AOD 2 26 Apr 11:22:30 11:25:10 16° 294° (WNW) 11:27:39 437.475
BEESAT 3 26 Apr 11:23:40 11:27:16 29° 49° (NE) 11:30:50 437.485
NANOSAT C BR1 26 Apr 11:24:51 11:29:00 65° 75° (ENE) 11:33:12 145.865
BEESAT 2 26 Apr 11:25:58 11:29:27 26° 48° (NE) 11:32:57 435.950
POPSAT HIP 1 26 Apr 11:28:19 11:32:30 72° 76° (ENE) 11:36:44 437.405
DX 1 26 Apr 11:29:35 11:33:52 55° 100° (E) 11:38:09 434.975-435.025
TIGRISAT 26 Apr 11:31:07 11:35:32 53° 261° (W) 11:40:05 435.000
YUBILEINY 26 Apr 11:32:02 11:40:51 80° 95° (E) 11:49:42 435.215
50 SAT 26 Apr 11:33:24 11:36:56 29° 95° (E) 11:40:28 437.505
CUBEBUG 2 26 Apr 11:34:55 11:39:33 50° 287° (WNW) 11:44:08 437.445
UNISAT 6 26 Apr 11:35:50 11:40:11 46° 262° (W) 11:44:39 437.425
AIST 1 26 Apr 11:39:22 11:42:48 24° 73° (ENE) 11:46:18
CINEMA 3 26 Apr 11:40:34 11:44:44 27° 291° (WNW) 11:48:51 145.822/145.860
BUGSAT 1 26 Apr 11:49:34 11:53:35 87° 78° (ENE) 11:57:38 437.445
HO-68 26 Apr 11:49:41 11:55:20 25° 300° (WNW) 12:00:45 435.675
POLYITAN 1 26 Apr 11:58:32 12:02:38 49° 261° (W) 12:06:47 437.675
DUCHIFAT 1 26 Apr 11:58:42 12:02:47 51° 260° (W) 12:06:55 145.980
UWE-3 26 Apr 11:59:57 12:04:12 34° 289° (WNW) 12:08:22 435.000/436.395/437.385
ESTCUBE 1 26 Apr 12:02:48 12:06:48 31° 96° (E) 12:10:49 437.505/2401.250
FUNcube-1 26 Apr 12:07:42 12:11:53 34° 289° (WNW) 12:15:59 145.935
UKube-1 26 Apr 12:11:47 12:16:01 53° 287° (WNW) 12:20:14 .
QB50P1 26 Apr 12:17:05 12:20:52 31° 264° (W) 12:24:37 145.935-145.965
ANTELSAT 26 Apr 12:19:40 12:22:42 17° 270° (W) 12:25:35 437.575/2403.000
HUMSAT D 26 Apr 12:22:45 12:26:54 44° 287° (WNW) 12:31:00 437.325/437.525
DELFI C3 26 Apr 12:26:04 12:28:15 14° 294° (WNW) 12:30:16 145.870
SPROUT 26 Apr 12:26:20 12:28:16 13° 89° (E) 12:30:26 437.525
Cosmos 2491 26 Apr 12:26:20 12:33:01 24° 278° (W) 12:39:19 435.465 / 435.565
ISS 26 Apr 12:29:54 12:33:09 90° 261° (W) 12:36:25 145.825
AIST 2 26 Apr 12:30:28 12:34:26 37° 51° (NE) 12:38:21 435.215
Oscar 11 26 Apr 12:33:46 12:34:52 11° 297° (WNW) 12:35:44 145.826/435.025
ZACube-1 26 Apr 12:34:06 12:37:26 19° 293° (WNW) 12:40:37 437.345
VELOX 1 26 Apr 12:39:34 12:43:55 55° 286° (WNW) 12:48:15 145.980
CUBEBUG 1 26 Apr 12:42:44 12:47:08 79° 104° (ESE) 12:51:30 437.445
QB50P2 26 Apr 12:44:51 12:47:30 16° 269° (W) 12:50:01 145.880/145.840
AISAT 26 Apr 12:58:00 13:02:03 34° 290° (WNW) 13:06:04 437.250
SO-50 26 Apr 13:00:27 13:04:47 36° 311° (NW) 13:09:15 436.795
BEESAT 3 26 Apr 13:01:45 13:05:12 26° 246° (WSW) 13:08:32 437.485
BEESAT 2 26 Apr 13:03:57 13:07:35 30° 245° (WSW) 13:11:07 435.950
DX 1 26 Apr 13:07:20 13:09:43 14° 295° (WNW) 13:11:56 434.975-435.025
50 SAT 26 Apr 13:08:29 13:11:36 21° 291° (WNW) 13:14:37 437.505
AIST 1 26 Apr 13:16:51 13:20:26 26° 270° (W) 13:23:57
Gurwin Techsat 1B 26 Apr 13:19:31 13:20:12 10° 59° (ENE) 13:21:13 435.225
TISAT 1 26 Apr 13:27:02 13:31:10 49° 99° (E) 13:35:19 437.305
YUBILEINY 26 Apr 13:32:11 13:38:51 22° 297° (WNW) 13:45:09 435.215
Cosmos 2504 26 Apr 13:38:34 13:47:02 53° 91° (E) 13:55:30 435.465 / 435.565
ESTCUBE 1 26 Apr 13:39:56 13:43:33 24° 292° (WNW) 13:47:04 437.505/2401.250
Oscar 19 26 Apr 13:43:19 13:48:23 63° 74° (ENE) 13:53:32 437.125/150
ITUPSAT 1 26 Apr 13:55:07 13:57:46 15° 90° (E) 14:00:38 437.325
RS-15 26 Apr 13:56:23 14:05:51 38° 108° (ESE) 14:15:41 29.354- 29.394
SPROUT 26 Apr 14:00:31 14:04:45 53° 286° (WNW) 14:08:58 437.525
ISS 26 Apr 14:07:32 14:09:54 18° 341° (NNW) 14:12:14 145.825
AIST 2 26 Apr 14:09:37 14:12:48 20° 248° (WSW) 14:15:51 435.215
AO-7 26 Apr 14:16:12 14:20:16 15° 49° (NE) 14:24:44 29.400- 29.500
ITAMSAT 1 26 Apr 14:20:00 14:24:51 44° 71° (ENE) 14:29:47 435.822/435.867
CUBEBUG 1 26 Apr 14:22:21 14:22:56 10° 297° (WNW) 14:23:16 437.445
BEESAT 26 Apr 14:24:16 14:28:28 31° 96° (E) 14:32:43 436.000
SWISSCUBE 26 Apr 14:26:48 14:31:11 36° 97° (E) 14:35:34 437.505
Gurwin Techsat 1B 26 Apr 14:54:06 14:59:24 78° 76° (ENE) 15:04:45 435.225
TISAT 1 26 Apr 15:04:07 15:06:36 15° 294° (WNW) 15:08:55 437.305
Oscar 19 26 Apr 15:25:16 15:28:17 15° 271° (W) 15:31:02 437.125/150
HORYU 2 26 Apr 15:25:36 15:29:31 31° 69° (ENE) 15:33:30 437.375
ITUPSAT 1 26 Apr 15:31:25 15:36:05 54° 287° (WNW) 15:40:42 437.325
Cosmos 2504 26 Apr 15:32:48 15:40:49 35° 290° (WNW) 15:48:33 435.465 / 435.565
KKS-1 26 Apr 15:42:39 15:46:50 37° 97° (E) 15:51:01 437.445
ISS 26 Apr 15:46:07 15:47:15 11° 1° (N) 15:48:24 145.825
JAS-2 26 Apr 15:46:55 15:54:16 47° 69° (ENE) 16:01:27 435.910
GONETS M04 26 Apr 15:57:09 16:03:51 27° 83° (E) 16:10:55
ITAMSAT 1 26 Apr 16:00:34 16:04:36 22° 267° (W) 16:08:30 435.822/435.867
BEESAT 26 Apr 16:02:13 16:06:14 27° 292° (WNW) 16:10:09 436.000
AO-7 26 Apr 16:03:33 16:11:42 67° 68° (ENE) 16:19:55 29.400- 29.500
SWISSCUBE 26 Apr 16:05:04 16:08:52 24° 293° (WNW) 16:12:33 437.505
RS-15 26 Apr 16:06:59 16:17:44 61° 310° (NW) 16:28:47 29.354- 29.394
PCSat 26 Apr 16:20:35 16:23:29 15° 40° (NE) 16:26:34 145.827
STARS 26 Apr 16:34:55 16:39:24 89° 103° (ESE) 16:43:51 437.465
Gurwin Techsat 1B 26 Apr 16:37:51 16:40:07 12° 273° (W) 16:42:03 435.225
VERMONT LUNAR 26 Apr 16:57:58 17:01:05 36° 157° (SSE) 17:04:15 437.305
HORYU 2 26 Apr 17:02:29 17:06:11 24° 266° (W) 17:09:51 437.375
CUTE-I 26 Apr 17:19:03 17:21:35 14° 61° (ENE) 17:24:20 437.470
KKS-1 26 Apr 17:19:53 17:23:15 21° 293° (WNW) 17:26:31 437.445
CUSAT 1 26 Apr 17:19:59 17:23:14 32° 89° (E) 17:27:29 437.405
ISS 26 Apr 17:22:05 17:24:35 20° 21° (NNE) 17:27:05 145.825
Cubesat XI-IV 26 Apr 17:28:08 17:31:23 17° 63° (ENE) 17:34:52 437.490
JAS-2 26 Apr 17:32:06 17:39:21 39° 265° (W) 17:46:21 435.910
PHONESAT 2.4 26 Apr 17:35:43 17:38:48 28° 154° (SSE) 17:41:56 2401.200-2431.200
GONETS M04 26 Apr 17:51:24 18:00:06 65° 282° (WNW) 18:08:53
MOZHAYETS 4 26 Apr 17:52:31 17:57:05 64° 100° (E) 18:01:36
AO-7 26 Apr 17:58:26 18:05:12 26° 267° (W) 18:11:41 29.400- 29.500
Cosmos 2499 26 Apr 17:58:42 18:05:45 29° 85° (E) 18:12:55 435.465 / 435.565
PCSat 26 Apr 18:02:24 18:07:51 82° 60° (ENE) 18:13:17 145.827
DANDE 26 Apr 18:05:33 18:08:53 80° 99° (E) 18:13:21 436.750
RS-15 26 Apr 18:24:42 18:33:11 24° 340° (NNW) 18:41:40 29.354- 29.394
VERMONT LUNAR 26 Apr 18:35:01 18:38:25 89° 215° (SW) 18:41:49 437.305
CUTE-I 26 Apr 18:55:44 19:01:03 80° 256° (WSW) 19:06:25 437.470
ISS 26 Apr 18:57:59 19:01:14 73° 220° (SW) 19:04:28 145.825
CUSAT 1 26 Apr 19:03:35 19:06:22 17° 299° (WNW) 19:09:29 437.405
Cubesat XI-IV 26 Apr 19:05:45 19:11:02 64° 258° (WSW) 19:16:20 437.490
AUBIESAT-1 26 Apr 19:12:36 19:15:51 23° 98° (E) 19:18:56 437.475
PHONESAT 2.4 26 Apr 19:13:14 19:16:49 80° 169° (S) 19:20:25 2401.200-2431.200
MOZHAYETS 4 26 Apr 19:31:35 19:33:49 13° 296° (WNW) 19:35:51
CUBESAT XI-V 26 Apr 19:31:49 19:36:21 56° 100° (E) 19:40:54 437.345
PRISM 26 Apr 19:38:06 19:41:52 35° 97° (E) 19:45:39 437.425
PCSat 26 Apr 19:48:14 19:50:39 13° 256° (WSW) 19:52:45 145.827
Cosmos 2499 26 Apr 19:49:39 19:58:27 63° 282° (WNW) 20:06:59 435.465 / 435.565
SO-50 26 Apr 19:51:58 19:56:05 26° 45° (NE) 20:00:13 436.795
GONETS M04 26 Apr 19:55:42 19:59:15 12° 306° (NW) 20:02:07
GOMX 1 26 Apr 19:58:50 20:01:24 16° 65° (ENE) 20:04:11 467.674
STRAND 1 26 Apr 20:03:20 20:08:19 52° 100° (E) 20:13:18 437.568
M-CUBED/EXP-1 PRIME 26 Apr 20:05:17 20:09:27 68° 290° (WNW) 20:13:14 437.505
VERMONT LUNAR 26 Apr 20:12:31 20:15:55 81° 191° (S) 20:19:18 437.305
BRITE-PL 26 Apr 20:15:30 20:19:18 37° 72° (ENE) 20:23:17 437.365/2234.400
SEEDS 26 Apr 20:19:56 20:22:36 17° 67° (ENE) 20:25:24 437.485
HO-68 26 Apr 20:28:45 20:35:31 47° 67° (ENE) 20:42:22 435.675
CANX-2 26 Apr 20:29:09 20:32:46 27° 70° (ENE) 20:36:28 2200.000
DOVE 4 26 Apr 20:29:15 20:32:34 23° 67° (ENE) 20:36:06 437.250
AAUSAT CUBESAT 2 26 Apr 20:34:27 20:37:04 17° 67° (ENE) 20:39:51 437.432
CUTE 1.7 + AOD 2 26 Apr 20:37:57 20:41:43 31° 71° (ENE) 20:45:33 437.475
RS-15 26 Apr 20:43:00 20:51:03 22° 15° (NNE) 20:59:31 29.354- 29.394
AUBIESAT-1 26 Apr 20:47:10 20:50:39 26° 297° (WNW) 20:53:51 437.475
PHONESAT 2.4 26 Apr 20:51:29 20:55:05 90° 237° (WSW) 20:58:41 2401.200-2431.200
CUBEBUG 2 26 Apr 20:58:36 21:00:35 13° 64° (ENE) 21:02:48 437.445
CINEMA 3 26 Apr 21:04:56 21:08:37 28° 69° (ENE) 21:12:32 145.822/145.860
CUBESAT XI-V 26 Apr 21:10:41 21:13:23 15° 295° (WNW) 21:15:55 437.345
PRISM 26 Apr 21:14:15 21:17:06 18° 293° (WNW) 21:19:51 437.425
UWE-3 26 Apr 21:21:14 21:24:13 19° 67° (ENE) 21:27:24 435.000/436.395/437.385
COMPASS 1 26 Apr 21:26:27 21:30:41 74° 77° (ENE) 21:34:56 437.405
FUNcube-1 26 Apr 21:28:00 21:30:46 17° 66° (ENE) 21:33:43 145.935
SO-50 26 Apr 21:32:07 21:36:52 46° 243° (WSW) 21:41:31 436.795
UKube-1 26 Apr 21:33:05 21:34:30 12° 63° (ENE) 21:36:07 .
GOMX 1 26 Apr 21:35:13 21:39:13 43° 263° (W) 21:43:24 467.674
DELFI C3 26 Apr 21:36:51 21:40:18 27° 71° (ENE) 21:43:48 145.870
Cosmos 2491 26 Apr 21:36:52 21:41:04 15° 78° (ENE) 21:45:53 435.465 / 435.565
HUMSAT D 26 Apr 21:41:26 21:42:35 11° 64° (ENE) 21:43:59 437.325/437.525
YUBILEINY 26 Apr 21:43:20 21:51:17 38° 71° (ENE) 21:59:18 435.215
STRAND 1 26 Apr 21:43:34 21:47:10 19° 295° (WNW) 21:50:37 437.568
Oscar 11 26 Apr 21:48:56 21:53:10 52° 74° (ENE) 21:57:26 145.826/435.025
VERMONT LUNAR 26 Apr 21:50:13 21:53:10 27° 206° (SSW) 21:56:04 437.305
Cosmos 2499 26 Apr 21:50:15 21:53:42 12° 304° (NW) 21:56:26 435.465 / 435.565
ZACube-1 26 Apr 21:52:39 21:56:28 31° 70° (ENE) 22:00:27 437.345
SEEDS 26 Apr 21:54:02 21:58:06 42° 262° (W) 22:02:12 437.485
BRITE-PL 26 Apr 21:55:21 21:58:07 17° 270° (W) 22:00:47 437.365/2234.400
VELOX 1 26 Apr 22:03:08 22:04:46 12° 64° (ENE) 22:06:37 145.980
CANX-2 26 Apr 22:05:05 22:08:42 25° 266° (W) 22:12:14 2200.000
DOVE 4 26 Apr 22:06:25 22:10:12 30° 265° (W) 22:14:08 437.250
AAUSAT CUBESAT 2 26 Apr 22:08:24 22:12:24 41° 262° (W) 22:16:26 437.432
CUTE 1.7 + AOD 2 26 Apr 22:14:18 22:17:42 22° 267° (W) 22:21:01 437.475
HO-68 26 Apr 22:17:03 22:23:27 33° 265° (W) 22:29:46 435.675
50 SAT 26 Apr 22:19:07 22:21:41 17° 67° (ENE) 22:24:23 437.505
AISAT 26 Apr 22:19:56 22:22:59 19° 67° (ENE) 22:26:09 437.250
DX 1 26 Apr 22:24:41 22:28:47 44° 72° (ENE) 22:32:56 434.975-435.025
PHONESAT 2.4 26 Apr 22:29:49 22:33:11 38° 203° (SSW) 22:36:32 2401.200-2431.200
CUBEBUG 2 26 Apr 22:32:26 22:36:45 62° 260° (W) 22:41:15 437.445
ANTELSAT 26 Apr 22:36:47 22:37:32 10° 86° (E) 22:38:36 437.575/2403.000
CINEMA 3 26 Apr 22:42:10 22:45:50 26° 267° (W) 22:49:34 145.822/145.860
RS-15 26 Apr 22:56:11 23:07:13 50° 46° (NE) 23:18:48 29.354- 29.394
UWE-3 26 Apr 22:56:20 23:00:27 41° 263° (W) 23:04:43 435.000/436.395/437.385
O/OREOS (USA 219) 26 Apr 22:58:08 23:02:43 77° 293° (WNW) 23:07:18 437.305
ESTCUBE 1 26 Apr 23:02:10 23:06:00 28° 69° (ENE) 23:09:53 437.505/2401.250
FUNcube-1 26 Apr 23:02:36 23:06:45 44° 262° (W) 23:11:02 145.935
UKube-1 26 Apr 23:05:52 23:10:09 67° 258° (WSW) 23:14:28 .
DELFI C3 26 Apr 23:12:09 23:15:26 22° 266° (W) 23:18:39 145.870
NANOSAT C BR1 26 Apr 23:12:47 23:13:52 11° 88° (E) 23:15:13 145.865
HUMSAT D 26 Apr 23:13:36 23:17:49 68° 259° (W) 23:22:06 437.325/437.525
POPSAT HIP 1 26 Apr 23:16:01 23:17:42 12° 89° (E) 23:19:37 437.405
SPROUT 26 Apr 23:22:07 23:22:35 10° 63° (ENE) 23:23:18 437.525
TIGRISAT 26 Apr 23:23:33 23:27:49 34° 96° (E) 23:32:03 435.000
Oscar 11 26 Apr 23:27:29 23:29:44 13° 271° (W) 23:31:46 145.826/435.025
Cosmos 2491 26 Apr 23:28:01 23:36:45 84° 96° (E) 23:45:34 435.465 / 435.565
UNISAT 6 26 Apr 23:28:19 23:32:44 39° 97° (E) 23:37:05 437.425
ZACube-1 26 Apr 23:29:24 23:32:54 23° 267° (W) 23:36:24 437.345
BUGSAT 1 26 Apr 23:33:53 23:35:47 13° 90° (E) 23:37:55 437.445
Cosmos 2504 26 Apr 23:34:13 23:38:48 17° 59° (ENE) 23:43:37 435.465 / 435.565
VELOX 1 26 Apr 23:36:29 23:40:51 66° 259° (W) 23:45:15 145.980
CUBEBUG 1 26 Apr 23:38:18 23:42:33 60° 74° (ENE) 23:46:49 437.445
YUBILEINY 26 Apr 23:40:04 23:48:17 46° 271° (W) 23:56:21 435.215
DUCHIFAT 1 26 Apr 23:44:18 23:47:51 25° 95° (E) 23:51:27 145.980
POLYITAN 1 26 Apr 23:44:46 23:48:25 27° 95° (E) 23:52:09 437.675
50 SAT 26 Apr 23:52:31 23:56:14 36° 263° (W) 23:59:59 437.505
AISAT 26 Apr 23:55:12 23:59:20 39° 262° (W) 00:03:28 437.250
QB50P1 27 Apr 00:02:14 00:06:19 41° 98° (E) 00:10:24 145.935-145.965
DX 1 27 Apr 00:02:37 00:05:19 16° 269° (W) 00:07:51 434.975-435.025
AIST 1 27 Apr 00:09:40 00:11:57 15° 87° (E) 00:14:26
ANTELSAT 27 Apr 00:10:15 00:14:59 75° 284° (WNW) 00:19:36 437.575/2403.000
TISAT 1 27 Apr 00:18:55 00:22:41 34° 71° (ENE) 00:26:30 437.305
QB50P2 27 Apr 00:28:39 00:32:59 87° 102° (ESE) 00:37:17 145.880/145.840
ESTCUBE 1 27 Apr 00:39:01 00:42:51 26° 265° (W) 00:46:37 437.505/2401.250
NANOSAT C BR1 27 Apr 00:45:57 00:50:12 61° 285° (WNW) 00:54:26 145.865
POPSAT HIP 1 27 Apr 00:49:46 00:54:00 55° 286° (WNW) 00:58:12 437.405
SPROUT 27 Apr 00:53:52 00:58:08 75° 258° (WSW) 01:02:26 437.525
TIGRISAT 27 Apr 01:00:34 01:04:24 25° 292° (WNW) 01:08:06 435.000
ITUPSAT 1 27 Apr 01:01:38 01:04:46 18° 65° (ENE) 01:08:04 437.325
UNISAT 6 27 Apr 01:05:40 01:09:16 22° 293° (WNW) 01:12:44 437.425
BUGSAT 1 27 Apr 01:07:34 01:11:36 49° 287° (WNW) 01:15:39 437.445
RS-15 27 Apr 01:08:46 01:19:54 53° 247° (WSW) 01:31:21 29.354- 29.394
CUBEBUG 1 27 Apr 01:17:52 01:19:24 11° 271° (W) 01:20:40 437.445
DUCHIFAT 1 27 Apr 01:20:00 01:23:39 27° 290° (WNW) 01:27:12 145.980
POLYITAN 1 27 Apr 01:20:40 01:24:17 26° 291° (WNW) 01:27:48 437.675
Cosmos 2504 27 Apr 01:25:39 01:33:42 90° 279° (W) 01:41:09 435.465 / 435.565
Cosmos 2491 27 Apr 01:28:34 01:34:55 21° 298° (WNW) 01:40:54 435.465 / 435.565
BEESAT 27 Apr 01:30:17 01:34:35 35° 70° (ENE) 01:38:55 436.000
SWISSCUBE 27 Apr 01:32:52 01:37:18 40° 71° (ENE) 01:41:47 437.505
QB50P1 27 Apr 01:39:01 01:41:54 17° 293° (WNW) 01:44:39 145.935-145.965
AIST 1 27 Apr 01:45:11 01:49:17 42° 282° (WNW) 01:53:22
TISAT 1 27 Apr 01:55:33 01:58:36 19° 267° (W) 02:01:33 437.305
Oscar 19 27 Apr 01:56:04 02:00:08 23° 93° (E) 02:04:18 437.125/150
GONETS M04 27 Apr 02:09:03 02:11:50 12° 54° (NE) 02:15:18
ITAMSAT 1 27 Apr 02:34:33 02:37:32 16° 90° (E) 02:40:45 435.822/435.867
ITUPSAT 1 27 Apr 02:37:41 02:42:20 49° 261° (W) 02:47:00 437.325
KKS-1 27 Apr 02:40:30 02:44:25 32° 70° (ENE) 02:48:25 437.445
BEESAT 3 27 Apr 02:53:26 02:57:26 62° 119° (ESE) 03:01:32 437.485
BEESAT 2 27 Apr 02:56:39 03:00:40 55° 118° (ESE) 03:04:44 435.950
DANDE 27 Apr 03:02:36 03:06:34 15° 61° (ENE) 03:11:17 436.750
BEESAT 27 Apr 03:08:35 03:12:30 24° 266° (W) 03:16:20 436.000
Gurwin Techsat 1B 27 Apr 03:11:13 03:15:55 32° 95° (E) 03:20:40 435.225
SWISSCUBE 27 Apr 03:11:41 03:15:20 21° 267° (W) 03:18:53 437.505
Cosmos 2504 27 Apr 03:21:40 03:25:57 15° 282° (WNW) 03:29:37 435.465 / 435.565
STARS 27 Apr 03:31:09 03:35:31 73° 76° (ENE) 03:39:57 437.465
Oscar 19 27 Apr 03:34:47 03:39:40 41° 290° (WNW) 03:44:30 437.125/150
CUSAT 1 27 Apr 03:54:50 04:02:04 43° 73° (ENE) 04:09:57 437.405
GONETS M04 27 Apr 04:02:13 04:11:01 64° 78° (ENE) 04:19:45
AIST 2 27 Apr 04:05:45 04:10:01 87° 301° (WNW) 04:14:20 435.215
AO-7 27 Apr 04:06:57 04:12:45 21° 90° (E) 04:18:57 29.400- 29.500
ITAMSAT 1 27 Apr 04:12:25 04:17:31 60° 287° (WNW) 04:22:36 435.822/435.867
KKS-1 27 Apr 04:17:36 04:21:08 22° 266° (W) 04:24:35 437.445
BEESAT 3 27 Apr 04:33:20 04:35:54 15° 318° (NW) 04:38:21 437.485
BEESAT 2 27 Apr 04:36:20 04:39:08 17° 317° (NW) 04:41:51 435.950
DANDE 27 Apr 04:43:22 04:50:59 72° 79° (ENE) 04:59:35 436.750
JAS-2 27 Apr 04:43:25 04:49:00 35° 93° (E) 04:54:05 435.910
Gurwin Techsat 1B 27 Apr 04:51:11 04:55:52 31° 292° (WNW) 05:00:28 435.225
HORYU 2 27 Apr 04:53:15 04:57:44 66° 101° (ESE) 05:02:11 437.375
MOZHAYETS 4 27 Apr 04:53:42 04:58:15 57° 74° (ENE) 05:02:49
M-CUBED/EXP-1 PRIME 27 Apr 05:19:17 05:22:20 17° 60° (ENE) 05:25:31 437.505
CUSAT 1 27 Apr 05:37:33 05:44:52 44° 268° (W) 05:52:32 437.405
Cosmos 2499 27 Apr 05:42:36 05:49:59 47° 74° (ENE) 05:56:56 435.465 / 435.565
AIST 2 27 Apr 05:47:27 05:49:18 12° 321° (NW) 05:51:02 435.215
AO-7 27 Apr 05:58:09 06:06:30 79° 290° (WNW) 06:14:50 29.400- 29.500
AUBIESAT-1 27 Apr 05:58:44 06:03:03 35° 66° (ENE) 06:07:25 437.475
GONETS M04 27 Apr 06:00:08 06:07:16 27° 277° (W) 06:14:04
DANDE 27 Apr 06:27:42 06:33:54 25° 272° (W) 06:40:17 436.750
PRISM 27 Apr 06:28:05 06:31:30 26° 69° (ENE) 06:34:58 437.425
JAS-2 27 Apr 06:28:30 06:34:06 33° 294° (WNW) 06:39:04 435.910
HORYU 2 27 Apr 06:31:50 06:33:53 13° 297° (WNW) 06:35:44 437.375
MOZHAYETS 4 27 Apr 06:33:24 06:35:54 14° 271° (W) 06:38:11
CUBESAT XI-V 27 Apr 06:34:37 06:39:06 51° 73° (ENE) 06:43:35 437.345
M-CUBED/EXP-1 PRIME 27 Apr 06:51:59 06:56:44 61° 255° (WSW) 07:01:32 437.505
PCSat 27 Apr 07:05:37 07:05:58 10° 103° (ESE) 07:06:43 145.827
CUTE-I 27 Apr 07:13:30 07:18:32 43° 98° (E) 07:23:36 437.470
STRAND 1 27 Apr 07:18:38 07:23:43 72° 75° (ENE) 07:28:50 437.568
Cubesat XI-IV 27 Apr 07:23:31 07:28:43 54° 100° (E) 07:33:56 437.490
O/OREOS (USA 219) 27 Apr 07:30:21 07:33:32 19° 55° (NE) 07:36:48 437.305
AUBIESAT-1 27 Apr 07:33:48 07:37:51 26° 261° (W) 07:41:50 437.475
Cosmos 2499 27 Apr 07:36:16 07:42:51 31° 275° (W) 07:48:55 435.465 / 435.565
AO-7 27 Apr 07:52:50 07:58:10 18° 309° (NW) 08:03:10 29.400- 29.500
PRISM 27 Apr 08:03:26 08:06:55 25° 265° (W) 08:10:20 437.425
CUBESAT XI-V 27 Apr 08:14:06 08:16:54 15° 270° (W) 08:19:30 437.345
BRITE-PL 27 Apr 08:20:33 08:23:38 16° 90° (E) 08:27:05 437.365/2234.400
